Voltar ao catálogo

STARLINK-1335

AtivoComunicaçõesVLEO
NORAD 45581·PAYLOAD·🇺🇸 United States

Lançado Apr 22, 2020 de Cape Canaveral Space Force Station

Loading…

Próximas Passagens (próximas 24 horas)

TLE

AtualizadoSource: CelesTrak SupGP

Época: Sep 15, 2026, 00:58 UTC

1 45581C 20025BC  26258.04076389  .00057952  00000+0  11606-2 0  2583
2 45581  53.1495 265.9486 0005599  58.3570   8.2540 15.46106647    18

Acompanhe STARLINK-1335 em tempo real com AllMySat

Download on the App Store